Regional Weather Roundup
Issued by NWS Charleston, SC

Current Version | Previous Version | Graphics & Text | Print | Product List | Glossary On
Versions: 1 2 3 4 5 6 7 8 9 10 11 12 13 14 15 16 17 18 19 20 21 22 23 24 25 26 27 28 29 30 31 32 33 34 35 36 37 38 39 40 41 42 43 44 45 46 47 48 49 50
000 ASUS42 KCHS 281310 RWRCHS REGIONAL WEATHER ROUNDUP NATIONAL WEATHER SERVICE CHARLESTON SC 800 AM EST FRI NOV 28 2014 NOTE: "FAIR" INDICATES FEW OR NO CLOUDS BELOW 12,000 FEET WITH NO SIGNIFICANT WEATHER AND/OR OBSTRUCTIONS TO VISIBILITY. NOT ALL STATIONS ARE QUALITY CONTROLLED BY THE NATIONAL WEATHER SERVICE. USE DATA WITH CAUTION...ESPECIALLY DEWPOINT OBSERVATIONS. SCZ027-030-031-034>040-042>050-281400- ...SOUTHEAST SOUTH CAROLINA... CITY SKY/WX TMP DP RH WIND PRES REMARKS N CHARLESTON CLEAR 37 25 61 N7 30.37R WCI 32 WATERFRONT PRK N/A 39 N/A N/A N17 N/A WCI 30 MOUNT PLEASANT FAIR 34 30 86 N3 30.37R JOHNS ISLAND SUNNY 39 30 70 N13 30.37R WCI 32 PINOPOLIS N/A 39 27 60 NE16 30.28F WCI 30 MONCKS CORNER FAIR 39 30 70 N8 30.37S WCI 34 SUMMERVILLE FAIR 36 30 80 N6 30.39R WCI 31 BEAUFORT MCAS CLEAR 37 29 72 N7 30.38R WCI 32 BEAUFORT ARPT FAIR 36 32 87 N9 30.37R WCI 29 HILTON HEAD IS CLEAR 37 32 81 N12G17 30.39R WCI 30 WALTERBORO SUNNY 34 N/A N/A CALM 30.39R ALLENDALE FAIR 32 30 93 N5 30.38R WCI 27 ...SOUTHERN MIDLANDS AND PEE DEE... CITY SKY/WX TMP DP RH WIND PRES REMARKS GEORGETOWN NOT AVBL KINGSTREE NOT AVBL ORANGEBURG CLEAR 33 27 78 CALM 30.39R BARNWELL N/A 32 32 100 CALM 30.40R AIKEN FAIR 32 28 86 CALM 30.41R MANNING NOT AVBL COLUMBIA CLEAR 34 24 67 N3 30.38R SUMTER CLEAR 31 26 82 NW2 30.37R FLORENCE CLEAR 32 25 75 N5 30.37R WCI 27 MYRTLE BEACH SUNNY 36 27 69 NW7 30.36R WCI 30 N MYRTLE BEACH SUNNY 34 27 75 N5 30.35R WCI 30 $$ GAZ063-065-086>088-099>101-113>116-118-119-134>141-150-281400- ...SOUTHEAST GEORGIA... CITY SKY/WX TMP DP RH WIND PRES REMARKS SAVANNAH ARPT CLEAR 36 29 75 N7 30.38R WCI 30 HUNTER AAF CLEAR 37 29 75 N8 30.36R WCI 30 FORT STEWART CLEAR 35 29 78 N8 30.37R WCI 29 STATESBORO NOT AVBL SYLVANIA SUNNY 35 32 88 N3 30.39R CLAXTON NOT AVBL ...CSRA...CENTRAL AND FAR SOUTHEAST GEORGIA... CITY SKY/WX TMP DP RH WIND PRES REMARKS THOMSON CLEAR 28 28 100 CALM 30.44R AUGUSTA-BUSH CLEAR 28 26 92 CALM 30.40R AUGUSTA-DANIEL CLEAR 34 26 72 N5 30.39R WCI 30 SWAINSBORO FAIR 32 32 100 N3 30.39R VIDALIA CLEAR 34 32 93 N6 30.38R WCI 29 HAZLEHURST FAIR 34 31 89 N5 30.38R WCI 30 ALMA CLEAR 35 27 72 N5 30.38R WCI 31 WAYCROSS CLEAR 37 33 86 N3 30.38R JESUP FAIR 37 32 81 N7 30.37S WCI 32 BAXLEY FAIR 34 32 93 N3 30.38R BRUNSWICK CLEAR 37 30 75 N6 30.37S WCI 33 SAINT SIMONS CLEAR 37 29 72 N10 30.36R WCI 30 $$ SCZ027-028-034-036>038-045-046-048>050-GAZ119-141-281400- ...LAKE AND SUPPLEMENTAL COASTAL OBSERVATIONS... STATION/POSITION TIME TEMP WIND PRES WAVE SWELL AIR SEA DIR/SP/G HT/PER HT/PER/DIR (UTC) (F) (DEG/KT/KT) (MB) (FT/S) (FT/S/D) UPR LAKE MARION NOT AVBL WINYAH BAY 1200 34 340/ 7 1027.0S LAKE MURRAY 1200 31 330/ 4/ 7 1027.8R ACE BASIN NERRS 1200 34 10/ 3 1027.0S FORT PULASKI 1300 36 360/ 8/ 10 1028.7F SAPELO ISLAND 1200 37 350/ 9 1028.0S $$ ANZ835-935-AMZ111-154-330-350-352-354-370-450-454-472-281400- ...C-MAN AND BUOY OBSERVATIONS... STATION/POSITION TIME TEMP WIND PRES WAVE SWELL AIR SEA DIR/SP/G HT/PER HT/PER/DIR (UTC) (F) (DEG/KT/KT) (MB) (FT/S) (FT/S/D) BUOY 41004 1300 48 72 360/ 19/ 25 1025.9R 6/ 6 2/ 9 BUOY 41008 1300 46 63 10/ 19/ 23 1027.1R 4/ 5 2/130/ 9 FOLLY BEACH CMAN 1200 38 360/ 14/ 18 1028.1R CAPERS NEARSHORE 1200 41 30/ 17/ 21 N/A FRIPP NEARSHORE NOT AVBL STATION/POSITION TIME TEMP WIND PRES WAVE SWELL AIR SEA DIR/SP/G HT/PER HT/PER/DIR (UTC) (F) (DEG/KT/KT) (MB) (FT/S) (FT/S/D) 5E ST. MARYS GA 1300 61 N/A 4/ 5 FRYING PAN BUOY 1300 44 68 360/ 21/ 25 1026.4R 6/ 6 2/160/ 9 BUOY 41025 1300 45 330/ 21/ 25 1023.6R 6/ 5 2/ 70/ 9 CAPE LOOKOUT NC 1200 38 350/ 17/ 21 1025.2R BUOY 41002 1151 59 72 330/ 21/ 27 1021.3R 12/ 9 2/ 10/13 BUOY 41010 1300 65 77 340/ 17/ 23 1022.4R 8/ 8 3/14 ST AUGUSTINE FL 1300 40 320/ 11/ 13 1027.6R $$

USA.gov is the U.S. government's official web portal to all federal, state and local government web resources and services.